Location: 5810 Zion Rd, Cleves, OH 45002, USA
(39.1922°N, 84.7113°W)
Time: 13:36:31
(UTC-05:00)

Courier 1B Rocket - Pass Details

Date: 10 December 2019
Orbit: 920 x 1202 km, 28.2° (Epoch: 26 January)

Event Time Altitude Azimuth Distance (km) Brightness Sun altitude
Rises 12:15:37 0° 256° (WSW) 3,577 8.1 27.8°
Reaches altitude 10° 12:20:10 10° 226° (SW) 2,606 7.9 27.8°
Maximum altitude 12:22:22 12° 205° (SSW) 2,461 8.3 27.8°
Drops below altitude 10° 12:24:33 10° 184° (S) 2,598 9.0 27.9°
Sets 12:29:05 0° 154° (SSE) 3,554 8.9 27.9°
